Regional Weather Roundup
Issued by NWS

Home | Current Version | Previous Version | Graphics & Text | Print | Product List | Glossary On
Versions: 1 2 3 4 5 6 7 8 9 10 11 12 13 14 15 16 17 18 19 20 21 22 23 24 25 26 27
000
ASUS45 KTFX 280410
RWRMT
MONTANA REGIONAL WEATHER ROUNDUP
NATIONAL WEATHER SERVICE GREAT FALLS MT
1000 PM MDT WED JUL 27 2016

NOTE: "FAIR" INDICATES FEW OR NO CLOUDS BELOW 12000 FEET WITH NO
SIGNIFICANT WEATHER AND/OR OBSTRUCTIONS TO VISIBILITY.

MTZ001>007-043-280500-
WEST OF THE DIVIDE

CITY           SKY/WX    TMP DP  RH WIND       PRES   REMARKS
KALISPELL      CLOUDY    71  51  49 N10       30.13R
MISSOULA       MOCLDY    78  45  30 NW5       30.08R
BUTTE          CLOUDY    70  45  40 N9        30.21R
MULLAN PASS    PTCLDY    65  45  48 NW5       30.28R
ANACONDA         N/A     66  46  48 CALM      30.18R
DEER LODGE       N/A     70  48  46 CALM      30.20R
EUREKA           N/A     66  54  63 CALM      30.13R
HAMILTON         N/A     75  48  38 CALM      30.09R
LIBBY            N/A     79  48  34 CALM      30.09R
PLAINS           N/A     70  59  68 CALM      30.09R
RONAN            N/A     77  52  41 S16       30.13S
$$

MTZ008-052>055-280500-
SOUTHWEST MONTANA

CITY           SKY/WX    TMP DP  RH WIND       PRES   REMARKS
BOZEMAN        CLEAR     75  50  41 SW5       30.13R
DILLON         CLOUDY    71  46  40 NE14      30.16R
W YELLOWSTONE  PTCLDY    66  41  39 E5        30.27R
ENNIS          MOCLDY    72  45  37 NE10G22   30.25R
THREE FORKS      N/A     72  18  13 CALM      30.12R
TWIN BRIDGES     N/A     76  44  31 N14       30.12R
$$

MTZ009-010-012-014-046-048-049-054-280500-
EAST SLOPES AND CENTRAL MONTANA

CITY           SKY/WX    TMP DP  RH WIND       PRES   REMARKS
CUT BANK       CLOUDY    62  58  86 W6        30.21R
GREAT FALLS    MOCLDY    69  51  52 N15G29    30.21R
MALMSTROM AFB  MOCLDY    71  50  48 N15       30.20R
HELENA         PTCLDY    72  48  42 W6        30.13R
CHOTEAU          N/A     63  54  72 CALM      30.26R
CONRAD           N/A     58  57  96 N10       30.21F
$$

MTZ011-013-016-021-045-047-050-051-280500-
NORTH CENTRAL MONTANA

CITY           SKY/WX    TMP DP  RH WIND       PRES   REMARKS
HAVRE          CLEAR     65  60  84 MISG      30.16R
LEWISTOWN      CLEAR     63  52  67 SE8       30.21S
N BAR RANCH      N/A     59  52  77 S7        30.25S
CHINOOK          N/A     66  61  82 CALM      30.15S
$$

MTZ017>020-022>027-061-062-280500-
NORTHEAST MONTANA

CITY           SKY/WX    TMP DP  RH WIND       PRES   REMARKS
GLASGOW        MOCLDY    62  59  90 NE5       30.15R
JORDAN           N/A     63  58  83 NE12      30.14R
SIDNEY         CLEAR     63  61  93 NE6       30.14R
WOLF POINT     PTCLDY    68  61  78 CALM      30.14R
PLENTYWOOD       N/A     63  61  94 E5        30.17R
SCOBEY           N/A     58  47  66 NE2       30.15R
$$

MTZ028>42-056>058-280500-
SOUTHCENTRAL AND SOUTHEAST MONTANA

CITY           SKY/WX    TMP DP  RH WIND       PRES   REMARKS
BAKER          LGT RAIN  67  60  78 E9        30.15R
BILLINGS       CLOUDY    73  56  54 NE14      30.17R
LIVINGSTON     CLEAR     72  50  45 E15       30.18R
MILES CITY     PTCLDY    68  62  81 NW7       30.10R
EKALAKA          N/A     67  58  72 E5        30.14R
FORSYTH          N/A     64  59  82 W5        30.11R
LAUREL           N/A     73  55  53 N7        30.14R
ROUNDUP          N/A     66  57  72 CALM      30.10R
$$

REGIONAL REPORTS...DAKOTAS

CITY           SKY/WX    TMP DP  RH WIND       PRES   REMARKS
WILLISTON      PTCLDY    64  60  87 NE8       30.15R
MINOT          CLOUDY    68  61  78 N3        30.14R
DICKINSON      MOCLDY    61  60  97 E8        30.14R
BEACH            N/A     61  61 100 E6        30.18S
CROSBY           N/A     61  61 100 CALM      30.19R
WATFORD CITY     N/A    N/A N/A N/A MISG        N/A
BISMARCK       LGT RAIN  67  63  87 E5        30.13R
GRAND FORKS    PTCLDY    65  57  75 N12       30.09R
FARGO          CLOUDY    66  60  81 N10       30.05S
BUFFALO SD       N/A     66  58  75 NE8       30.12R
RAPID CITY     CLEAR     65  59  81 E8        30.16R
$$

REGIONAL REPORTS...WYOMING/IDAHO/WASHINGTON

CITY           SKY/WX    TMP DP  RH WIND       PRES   REMARKS
GILLETTE       PTCLDY    67  60  78 S8        30.16R
SHERIDAN       CLOUDY    76  50  40 N9        30.15R
BUFFALO WY     PTCLDY    74  51  44 CALM      30.21R
CODY           CLEAR     70  52  52 NW7       30.21R
YELLOWSTONE LA   N/A     52  47  83 CALM      30.38R
IDAHO FALLS    CLEAR     81  37  20 S7        30.04S
SALMON         MOCLDY    77  45  31 NE7       30.04R
BOISE          CLEAR     87  43  21 NW7       29.93R
SPOKANE        PTCLDY    84  43  23 N5        30.03R
$$

REGIONAL REPORTS...ALBERTA

CITY           SKY/WX    TMP DP  RH WIND       PRES   REMARKS
EDMONTON       CLEAR     63  55  77 CALM      30.13R
CALGARY        MOCLDY    66  52  59 N20G26    30.21R
LETHBRIDGE     MOCLDY    61  57  88 SW5       30.17R
MEDICINE HAT   CLEAR     68  59  73 E6        30.13R
$$

REGIONAL REPORTS...SASKATCHEWAN

CITY           SKY/WX    TMP DP  RH WIND       PRES   REMARKS
SWIFT CURRENT  CLEAR     63  54  72 E6        30.18R
REGINA         PTCLDY    61  55  82 SE7       30.17R
SASKATOON      MOCLDY    66  54  63 S9        30.16R
$$




USA.gov is the U.S. government's official web portal to all federal, state and local government web resources and services.